Regional Weather Roundup
Issued by NWS Albany, NY

Home | Current Version | Previous Version | Text Only | Print | Product List | Glossary On
Versions: 1 2 3 4 5 6 7 8 9 10 11 12 13 14 15 16 17 18 19 20 21 22 23 24 25 26 27 28 29 30 31 32 33 34 35 36 37 38 39 40 41 42 43 44 45 46 47 48 49 50
000
ASUS41 KALY 301010
RWRALY

NEW YORK STATE HOURLY WEATHER ROUNDUP
NATIONAL WEATHER SERVICE ALBANY NY
600 AM EDT SUN AUG 30 2015

NOTE: "FAIR" INDICATES FEW OR NO CLOUDS BELOW 12,000 FEET WITH NO
SIGNIFICANT WEATHER AND/OR NO OBSTRUCTIONS TO VISIBILITY.

NYZ032-033-038>043-046>054-057>066-NYZ062>081-301100-
EAST


CITY           SKY/WX    TMP DP  RH WIND       PRES   REMARKS
ALBANY         MOCLDY    62  58  86 CALM      30.08R
GLENS FALLS    MOCLDY    60  58  92 CALM      30.06S
POUGHKEEPSIE   CLEAR     61  59  93 CALM      30.07R
NEWBURGH       CLEAR     63  63 100 CALM      30.10R
MONTGOMERY     CLEAR     61  60  97 CALM      30.09R FOG
WHITE PLAINS   CLEAR     67  61  81 W5        30.08F
ISLIP          PTCLDY    68  62  81 W3        30.08R
NEW YORK CITY  PTCLDY    73  62  68 SW6       30.08S
CENTRAL PARK   CLEAR     73  61  65 W7        30.11F
$$

NYZ005>009-017-018-044>046-055-056-301100-
CENTRAL


CITY           SKY/WX    TMP DP  RH WIND       PRES   REMARKS
FULTON         CLOUDY    64  60  87 E3        30.07S
SYRACUSE       CLOUDY    64  61  90 E3        30.06S
ROME           CLOUDY    62  59  90 CALM      30.09S
ELMIRA         CLOUDY    63  62  97 N3        30.08F
BINGHAMTON     CLOUDY    62  59  90 NW7       30.12R
MONTICELLO     CLOUDY    57  57 100 CALM      30.13S VSB 3/4
$$

NYZ026>034-041>043-301100-
NORTH


CITY           SKY/WX    TMP DP  RH WIND       PRES   REMARKS
WATERTOWN      PTCLDY    57  56  96 CALM      30.07S FOG
FORT DRUM      NOT AVBL
MASSENA        CLEAR     59  57  93 SW3       30.06S
SARANAC LAKE   MOCLDY    56  54  93 SW3       30.09R
PLATTSBURGH    MOCLDY    61  59  93 CALM      30.04S
$$

NYZ001>004-010>016-019>021-301100-
WEST


CITY           SKY/WX    TMP DP  RH WIND       PRES   REMARKS
NIAGARA FALLS  CLOUDY    66  60  81 CALM      30.05S
BUFFALO        CLOUDY    67  62  84 CALM      30.06S
DUNKIRK        CLOUDY    66  63  90 SW7       30.07R
JAMESTOWN      CLOUDY    63  59  88 S5        30.10S
WELLSVILLE     CLOUDY    62  59  90 CALM      30.13S FOG
ROCHESTER      CLOUDY    67  63  87 SW6       30.06S
PENN YAN       LGT RAIN  65  63  93 CALM      30.09R
$$

             KEY
       WCI = WIND CHILL INDEX
       VSB = VISIBILITY
       HX  = HEAT INDEX
$$



USA.gov is the U.S. government's official web portal to all federal, state and local government web resources and services.